| time (UTC) | temp C | wind direction | speed KPH | gust KPH | rain 1hr cm | rain 24hr cm | rain mn cm | humidity % | barometer mb |
| 20260505022928 | 3 | 174 | 8.0 | 9.7 | 0.00 | 0.10 | 0.10 | 90 | 1016.2 |
| 20260505022426 | 3 | 112 | 8.0 | 20.9 | 0.00 | 0.10 | 0.10 | 89 | 1016.0 |
| 20260505021922 | 3 | 108 | 11.3 | 12.9 | 0.00 | 0.10 | 0.10 | 89 | 1016.0 |
| 20260505021418 | 3 | 94 | 6.4 | 8.0 | 0.00 | 0.10 | 0.10 | 89 | 1015.8 |
| 20260505020914 | 3 | 135 | 6.4 | 12.9 | 0.00 | 0.10 | 0.10 | 89 | 1015.6 |
| 20260505020410 | 3 | 107 | 8.0 | 8.0 | 0.00 | 0.10 | 0.10 | 89 | 1015.4 |
| 20260505015907 | 3 | 89 | 3.2 | 12.9 | 0.00 | 0.10 | 0.10 | 89 | 1015.2 |
| 20260505015404 | 3 | 92 | 9.7 | 12.9 | 0.00 | 0.10 | 0.10 | 87 | 1015.5 |
| 20260505014901 | 3 | 85 | 3.2 | 6.4 | 0.00 | 0.10 | 0.10 | 85 | 1015.6 |
| 20260505014358 | 3 | 103 | 6.4 | 6.4 | 0.00 | 0.10 | 0.10 | 84 | 1015.4 |
| 20260505013855 | 4 | 172 | 1.6 | 6.4 | 0.00 | 0.10 | 0.10 | 83 | 1015.5 |
| 20260505013352 | 4 | 114 | 3.2 | 6.4 | 0.00 | 0.10 | 0.10 | 82 | 1015.1 |
| 20260505012850 | 4 | 126 | 4.8 | 8.0 | 0.00 | 0.10 | 0.10 | 81 | 1015.6 |
| 20260505012348 | 4 | 144 | 9.7 | 12.9 | 0.00 | 0.10 | 0.10 | 81 | 1015.4 |
| 20260505011844 | 4 | 136 | 12.9 | 12.9 | 0.00 | 0.10 | 0.10 | 83 | 1015.8 |
| 20260505011341 | 4 | 132 | 11.3 | 14.5 | 0.00 | 0.10 | 0.10 | 83 | 1015.5 |
| 20260505010837 | 4 | 154 | 14.5 | 17.7 | 0.00 | 0.10 | 0.10 | 82 | 1015.4 |
| 20260505010333 | 4 | 137 | 14.5 | 14.5 | 0.00 | 0.10 | 0.10 | 83 | 1015.4 |
| 20260505005829 | 4 | 141 | 14.5 | 17.7 | 0.00 | 0.10 | 0.10 | 83 | 1015.6 |
| 20260505005326 | 4 | 159 | 12.9 | 19.3 | 0.00 | 0.10 | 0.10 | 82 | 1015.4 |
| 20260505004824 | 4 | 127 | 8.0 | 12.9 | 0.00 | 0.10 | 0.10 | 81 | 1015.2 |
| 20260505004320 | 4 | 123 | 9.7 | 12.9 | 0.00 | 0.10 | 0.10 | 80 | 1015.8 |
| 20260505003818 | 4 | 127 | 9.7 | 17.7 | 0.00 | 0.10 | 0.10 | 81 | 1015.8 |
| 20260505003315 | 4 | 164 | 12.9 | 20.9 | 0.00 | 0.10 | 0.10 | 82 | 1015.4 |
| 20260505002810 | 4 | 179 | 16.1 | 22.5 | 0.00 | 0.10 | 0.10 | 81 | 1015.5 |
| 20260505002308 | 3 | 156 | 17.7 | 22.5 | 0.00 | 0.10 | 0.10 | 82 | 1015.6 |
| 20260505001806 | 3 | 185 | 14.5 | 20.9 | 0.00 | 0.10 | 0.10 | 84 | 1015.6 |
| 20260505001303 | 3 | 169 | 14.5 | 22.5 | 0.05 | 0.10 | 0.10 | 85 | 1016.0 |
| 20260505000800 | 3 | 151 | 20.9 | 27.4 | 0.05 | 0.08 | 0.08 | 84 | 1015.9 |
| 20260505000258 | 3 | 147 | 20.9 | 22.5 | 0.05 | 0.08 | 0.08 | 82 | 1016.4 |
| 20260504235754 | 3 | 154 | 9.7 | 16.1 | 0.05 | 0.08 | 0.08 | 80 | 1016.4 |
| 20260504235250 | 4 | 148 | 11.3 | 22.5 | 0.13 | 0.05 | 0.05 | 76 | 1016.4 |
| 20260504234748 | 5 | 306 | 4.8 | 12.9 | 0.13 | 0.05 | 0.05 | 73 | 1016.5 |
| 20260504234245 | 5 | 160 | 8.0 | 11.3 | 0.00 | 0.05 | 0.05 | 67 | 1016.4 |
| 20260504233741 | 6 | 158 | 12.9 | 14.5 | 0.00 | 0.05 | 0.05 | 65 | 1016.0 |
| 20260504233237 | 6 | 123 | 9.7 | 9.7 | 0.00 | 0.05 | 0.05 | 65 | 1016.0 |
| 20260504232734 | 6 | 46 | 3.2 | 6.4 | 0.00 | 0.05 | 0.05 | 66 | 1015.9 |
| 20260504232231 | 6 | 107 | 0.0 | 8.0 | 0.00 | 0.05 | 0.05 | 66 | 1015.8 |
| 20260504231728 | 6 | 96 | 3.2 | 6.4 | 0.00 | 0.05 | 0.05 | 65 | 1015.6 |
| 20260504231224 | 6 | 37 | 6.4 | 8.0 | 0.00 | 0.05 | 0.05 | 63 | 1015.6 |
| 20260504230720 | 6 | 74 | 4.8 | 6.4 | 0.00 | 0.05 | 0.05 | 63 | 1015.4 |
| 20260504230219 | 6 | 74 | 9.7 | 12.9 | 0.00 | 0.05 | 0.05 | 62 | 1015.9 |
| 20260504225718 | 6 | 84 | 4.8 | 6.4 | 0.00 | 0.05 | 0.05 | 65 | 1015.5 |
| 20260504225213 | 6 | 105 | 4.8 | 12.9 | 0.00 | 0.05 | 0.05 | 64 | 1015.2 |
| 20260504224711 | 6 | 0 | 4.8 | 14.5 | 0.00 | 0.05 | 0.05 | 64 | 1015.2 |
| 20260504224208 | 6 | 69 | 4.8 | 16.1 | 0.00 | 0.05 | 0.05 | 64 | 1014.8 |
| 20260504223704 | 6 | 359 | 4.8 | 17.7 | 0.00 | 0.05 | 0.05 | 63 | 1015.4 |
| 20260504223200 | 7 | 72 | 4.8 | 9.7 | 0.00 | 0.05 | 0.05 | 61 | 1015.5 |
| 20260504222657 | 7 | 56 | 9.7 | 9.7 | 0.00 | 0.05 | 0.05 | 63 | 1015.2 |
| 20260504222154 | 7 | 7 | 9.7 | 9.7 | 0.00 | 0.05 | 0.05 | 63 | 1015.0 |
| 20260504221651 | 6 | 286 | 6.4 | 11.3 | 0.00 | 0.05 | 0.05 | 63 | 1015.1 |
| 20260504221148 | 6 | 10 | 4.8 | 11.3 | 0.00 | 0.05 | 0.05 | 63 | 1015.0 |
| 20260504220644 | 7 | 353 | 9.7 | 25.7 | 0.00 | 0.05 | 0.05 | 60 | 1015.1 |
| 20260504220142 | 7 | 78 | 6.4 | 25.7 | 0.00 | 0.05 | 0.05 | 57 | 1015.0 |
| 20260504215638 | 7 | 277 | 9.7 | 9.7 | 0.00 | 0.05 | 0.05 | 62 | 1014.8 |
| 20260504215136 | 8 | 42 | 3.2 | 19.3 | 0.00 | 0.05 | 0.05 | 53 | 1014.7 |
| 20260504214631 | 8 | 333 | 3.2 | 9.7 | 0.00 | 0.05 | 0.05 | 51 | 1014.8 |
| 20260504214128 | 8 | 347 | 3.2 | 8.0 | 0.13 | 0.05 | 0.05 | 57 | 1014.8 |
| 20260504213625 | 9 | 29 | 6.4 | 16.1 | 0.23 | 0.05 | 0.05 | 49 | 1015.0 |
| 20260504213121 | 10 | 345 | 1.6 | 4.8 | 0.13 | 0.03 | 0.03 | 55 | 1015.0 |
| 20260504212618 | 10 | 118 | 4.8 | 11.3 | 0.00 | 0.00 | 0.00 | 46 | 1014.6 |
| 20260504212115 | 11 | 88 | 4.8 | 11.3 | 0.00 | 0.00 | 0.00 | 40 | 1014.7 |
| 20260504211612 | 11 | 27 | 8.0 | 16.1 | 0.00 | 0.00 | 0.00 | 36 | 1014.8 |
| 20260504211109 | 11 | 24 | 6.4 | 16.1 | 0.00 | 0.00 | 0.00 | 37 | 1014.7 |
| 20260504210606 | 12 | 352 | 4.8 | 8.0 | 0.00 | 0.00 | 0.00 | 36 | 1014.5 |
| 20260504205600 | 12 | 167 | 4.8 | 11.3 | 0.00 | 0.00 | 0.00 | 39 | 1014.8 |
| 20260504205058 | 11 | 338 | 6.4 | 11.3 | 0.00 | 0.00 | 0.00 | 38 | 1014.8 |
| 20260504204555 | 12 | 4 | 4.8 | 12.9 | 0.00 | 0.00 | 0.00 | 39 | 1015.0 |
| 20260504204055 | 11 | 44 | 8.0 | 14.5 | 0.00 | 0.00 | 0.00 | 41 | 1015.1 |
| 20260504203552 | 12 | 32 | 11.3 | 11.3 | 0.00 | 0.00 | 0.00 | 41 | 1015.5 |
| 20260504203050 | 10 | 112 | 6.4 | 11.3 | 0.00 | 0.00 | 0.00 | 44 | 1015.5 |
| 20260504202545 | 10 | 59 | 9.7 | 17.7 | 0.00 | 0.00 | 0.00 | 45 | 1015.4 |
| 20260504202042 | 10 | 81 | 8.0 | 20.9 | 0.00 | 0.00 | 0.00 | 48 | 1015.6 |
| 20260504201539 | 10 | 358 | 8.0 | 14.5 | 0.00 | 0.00 | 0.00 | 48 | 1015.5 |
| 20260504201037 | 10 | 65 | 12.9 | 14.5 | 0.00 | 0.00 | 0.00 | 49 | 1015.9 |
| 20260504200533 | 9 | 43 | 4.8 | 8.0 | 0.00 | 0.00 | 0.00 | 50 | 1015.8 |
| 20260504200030 | 10 | 352 | 9.7 | 11.3 | 0.00 | 0.00 | 0.00 | 48 | 1015.4 |
| 20260504195526 | 10 | 94 | 3.2 | 11.3 | 0.00 | 0.00 | 0.00 | 50 | 1015.8 |
| 20260504195023 | 10 | 12 | 6.4 | 14.5 | 0.00 | 0.00 | 0.00 | 50 | 1016.0 |
| 20260504194519 | 7 | 327 | 6.4 | 14.5 | 0.00 | 0.00 | 0.00 | 58 | 1016.2 |
| 20260504194014 | 7 | 73 | 1.6 | 12.9 | 0.00 | 0.00 | 0.00 | 61 | 1016.4 |
| 20260504193511 | 6 | 342 | 3.2 | 24.1 | 0.00 | 0.00 | 0.00 | 61 | 1016.5 |
| 20260504193010 | 7 | 297 | 4.8 | 25.7 | 0.00 | 0.00 | 0.00 | 59 | 1016.7 |
| 20260504192508 | 7 | 344 | 4.8 | 32.2 | 0.00 | 0.00 | 0.00 | 52 | 1016.8 |
| 20260504192006 | 8 | 336 | 11.3 | 12.9 | 0.00 | 0.00 | 0.00 | 51 | 1016.4 |
| 20260504191504 | 8 | 347 | 9.7 | 16.1 | 0.00 | 0.00 | 0.00 | 49 | 1016.3 |
| 20260504190959 | 8 | 302 | 12.9 | 25.7 | 0.00 | 0.00 | 0.00 | 47 | 1016.3 |
| 20260504190455 | 10 | 272 | 12.9 | 16.1 | 0.00 | 0.00 | 0.00 | 44 | 1016.3 |
| 20260504185952 | 10 | 8 | 1.6 | 6.4 | 0.00 | 0.00 | 0.00 | 41 | 1016.0 |
| 20260504185449 | 10 | 119 | 12.9 | 17.7 | 0.00 | 0.00 | 0.00 | 39 | 1016.0 |
| 20260504184945 | 10 | 4 | 3.2 | 6.4 | 0.00 | 0.00 | 0.00 | 40 | 1016.0 |
| 20260504184441 | 10 | 80 | 4.8 | 9.7 | 0.00 | 0.00 | 0.00 | 41 | 1016.0 |
| 20260504183936 | 10 | 103 | 11.3 | 17.7 | 0.00 | 0.00 | 0.00 | 38 | 1015.9 |
| 20260504183434 | 10 | 136 | 4.8 | 6.4 | 0.00 | 0.00 | 0.00 | 43 | 1016.0 |
| 20260504182932 | 10 | 322 | 4.8 | 6.4 | 0.00 | 0.00 | 0.00 | 45 | 1016.2 |
| 20260504182428 | 9 | 1 | 4.8 | 6.4 | 0.00 | 0.00 | 0.00 | 48 | 1016.3 |
| 20260504181926 | 9 | 309 | 11.3 | 16.1 | 0.00 | 0.00 | 0.00 | 45 | 1016.2 |
| 20260504181423 | 10 | 295 | 4.8 | 6.4 | 0.00 | 0.00 | 0.00 | 42 | 1016.2 |
| 20260504180922 | 10 | 25 | 20.9 | 22.5 | 0.00 | 0.00 | 0.00 | 39 | 1016.2 |
| 20260504180420 | 11 | 25 | 8.0 | 17.7 | 0.00 | 0.00 | 0.00 | 37 | 1016.3 |
| 20260504175918 | 11 | 328 | 4.8 | 14.5 | 0.00 | 0.00 | 0.00 | 38 | 1015.8 |
| 20260504175414 | 11 | 353 | 11.3 | 12.9 | 0.00 | 0.00 | 0.00 | 40 | 1016.2 |
| 20260504174912 | 10 | 317 | 3.2 | 20.9 | 0.00 | 0.00 | 0.00 | 39 | 1016.3 |
| 20260504174410 | 11 | 30 | 6.4 | 12.9 | 0.00 | 0.00 | 0.00 | 38 | 1016.3 |
| 20260504173907 | 11 | 332 | 12.9 | 14.5 | 0.00 | 0.00 | 0.00 | 37 | 1016.3 |
| 20260504173403 | 11 | 114 | 4.8 | 6.4 | 0.00 | 0.00 | 0.00 | 37 | 1016.3 |
| 20260504172901 | 11 | 286 | 14.5 | 16.1 | 0.00 | 0.00 | 0.00 | 35 | 1016.4 |
| 20260504172357 | 12 | 316 | 8.0 | 14.5 | 0.00 | 0.00 | 0.00 | 35 | 1016.3 |
| 20260504171853 | 12 | 92 | 4.8 | 11.3 | 0.00 | 0.00 | 0.00 | 35 | 1016.3 |
| 20260504171350 | 11 | 341 | 6.4 | 29.0 | 0.00 | 0.00 | 0.00 | 36 | 1016.4 |
| 20260504170847 | 11 | 309 | 14.5 | 32.2 | 0.00 | 0.00 | 0.00 | 36 | 1016.4 |
| 20260504170344 | 12 | 298 | 8.0 | 27.4 | 0.00 | 0.00 | 0.00 | 36 | 1016.5 |
| 20260504160302 | 9 | 215 | 3.2 | 11.3 | 0.00 | 0.00 | 0.00 | 39 | 1017.1 |
| 20260504150728 | 8 | 126 | 6.4 | 12.9 | 0.00 | 0.00 | 0.00 | 41 | 1017.3 |
| 20260504150224 | 8 | 195 | 14.5 | 17.7 | 0.00 | 0.00 | 0.00 | 40 | 1017.1 |
| 20260504141153 | 7 | 230 | 12.9 | 20.9 | 0.00 | 0.00 | 0.00 | 38 | 1017.3 |
| 20260504140650 | 7 | 57 | 3.2 | 9.7 | 0.00 | 0.00 | 0.00 | 39 | 1017.2 |
| 20260504140145 | 7 | 207 | 8.0 | 9.7 | 0.00 | 0.00 | 0.00 | 38 | 1017.2 |
| 20260504130614 | 7 | 245 | 8.0 | 9.7 | 0.00 | 0.00 | 0.00 | 33 | 1017.2 |
| 20260504130111 | 7 | 309 | 6.4 | 9.7 | 0.00 | 0.00 | 0.00 | 33 | 1017.1 |
| 20260504110502 | 7 | 199 | 4.8 | 9.7 | 0.00 | 0.00 | 0.00 | 31 | 1016.9 |
| 20260504100424 | 7 | 218 | 6.4 | 9.7 | 0.00 | 0.00 | 0.00 | 31 | 1017.3 |
| 20260504081817 | 8 | 285 | 6.4 | 11.3 | 0.00 | 0.00 | 0.00 | 29 | 1017.9 |
| 20260504081314 | 8 | 269 | 8.0 | 9.7 | 0.00 | 0.00 | 0.00 | 29 | 1018.1 |
| 20260504080810 | 8 | 284 | 6.4 | 9.7 | 0.00 | 0.00 | 0.00 | 29 | 1018.0 |
| 20260504080307 | 8 | 268 | 9.7 | 14.5 | 0.00 | 0.00 | 0.00 | 30 | 1018.1 |
| 20260504070235 | 8 | 283 | 3.2 | 9.7 | 0.00 | 0.00 | 0.00 | 31 | 1018.6 |
| 20260504060155 | 8 | 285 | 3.2 | 9.7 | 0.00 | 0.00 | 0.00 | 32 | 1019.0 |
| 20260504050623 | 8 | 346 | 3.2 | 6.4 | 0.00 | 0.00 | 0.00 | 34 | 1019.3 |
| 20260504050120 | 8 | 328 | 6.4 | 11.3 | 0.00 | 0.00 | 0.00 | 33 | 1019.4 |
| 20260504045617 | 8 | 347 | 3.2 | 9.7 | 0.00 | 0.00 | 0.00 | 33 | 1019.4 |
| 20260504045112 | 8 | 147 | 0.0 | 8.0 | 0.00 | 0.00 | 0.00 | 34 | 1019.6 |
| 20260504044610 | 8 | 258 | 4.8 | 11.3 | 0.00 | 0.00 | 0.00 | 34 | 1019.6 |
| 20260504044106 | 8 | 323 | 6.4 | 9.7 | 0.00 | 0.00 | 0.00 | 33 | 1019.6 |
| 20260504043604 | 8 | 256 | 6.4 | 11.3 | 0.00 | 0.00 | 0.00 | 33 | 1019.4 |
| 20260504043101 | 8 | 333 | 6.4 | 9.7 | 0.00 | 0.00 | 0.00 | 34 | 1019.6 |
| 20260504042558 | 8 | 320 | 4.8 | 8.0 | 0.00 | 0.00 | 0.00 | 34 | 1019.8 |
| 20260504042055 | 8 | 320 | 4.8 | 8.0 | 0.00 | 0.00 | 0.00 | 34 | 1019.9 |
| 20260504041550 | 8 | 291 | 6.4 | 9.7 | 0.00 | 0.00 | 0.00 | 34 | 1019.7 |
| 20260504041047 | 8 | 311 | 6.4 | 14.5 | 0.00 | 0.00 | 0.00 | 34 | 1019.8 |
| 20260504040544 | 8 | 343 | 8.0 | 9.7 | 0.00 | 0.00 | 0.00 | 34 | 1019.6 |
| 20260504040041 | 8 | 334 | 4.8 | 9.7 | 0.00 | 0.00 | 0.00 | 34 | 1019.8 |
| 20260504035538 | 8 | 0 | 4.8 | 8.0 | 0.00 | 0.00 | 0.00 | 34 | 1019.8 |
| 20260504035034 | 8 | 312 | 4.8 | 16.1 | 0.00 | 0.00 | 0.00 | 34 | 1019.9 |
| 20260504034533 | 8 | 6 | 3.2 | 6.4 | 0.00 | 0.00 | 0.00 | 35 | 1019.9 |
| 20260504034029 | 8 | 253 | 8.0 | 11.3 | 0.00 | 0.00 | 0.00 | 34 | 1019.9 |
| 20260504033527 | 8 | 303 | 4.8 | 11.3 | 0.00 | 0.00 | 0.00 | 35 | 1019.8 |
| 20260504033024 | 8 | 335 | 6.4 | 9.7 | 0.00 | 0.00 | 0.00 | 35 | 1019.8 |
| 20260504032521 | 8 | 247 | 17.7 | 19.3 | 0.00 | 0.00 | 0.00 | 35 | 1019.8 |
| 20260504032017 | 8 | 299 | 8.0 | 16.1 | 0.00 | 0.00 | 0.00 | 36 | 1019.9 |
| 20260504031514 | 8 | 283 | 8.0 | 16.1 | 0.00 | 0.00 | 0.00 | 36 | 1019.8 |
| 20260504031010 | 8 | 257 | 12.9 | 20.9 | 0.00 | 0.00 | 0.00 | 36 | 1019.8 |
| 20260504030508 | 8 | 275 | 12.9 | 14.5 | 0.00 | 0.00 | 0.00 | 35 | 1019.7 |
| 20260504030004 | 8 | 237 | 6.4 | 16.1 | 0.00 | 0.00 | 0.00 | 35 | 1019.8 |
| 20260504025501 | 8 | 274 | 4.8 | 22.5 | 0.00 | 0.00 | 0.00 | 35 | 1019.7 |
| 20260504024957 | 8 | 334 | 4.8 | 17.7 | 0.00 | 0.00 | 0.00 | 35 | 1019.7 |
| 20260504024455 | 8 | 273 | 8.0 | 9.7 | 0.00 | 0.00 | 0.00 | 35 | 1019.6 |
| 20260504023952 | 8 | 11 | 3.2 | 11.3 | 0.00 | 0.00 | 0.00 | 36 | 1019.7 |
| 20260504023449 | 8 | 29 | 4.8 | 8.0 | 0.00 | 0.00 | 0.00 | 36 | 1019.4 |
| 20260504022944 | 8 | 323 | 3.2 | 4.8 | 0.00 | 0.00 | 0.00 | 36 | 1019.4 |